Weather History for West Yellowstone, MT

Change the Weather History Date:

Wednesday, November 14, 2012

  Actual Average Record
Temperature  
Mean Temperature 26 °F -  
Max Temperature 32 °F 34 °F 32 °F (2011)
Min Temperature 21 °F 14 °F 17 °F (2011)
Degree Days  
Heating Degree Days 38    
Moisture  
Dew Point -    
Average Humidity    
Maximum Humidity    
Minimum Humidity    
Precipitation  
Precipitation 0.00 in - - ()
Sea Level Pressure  
Sea Level Pressure 30.19 in    
Wind  
Wind Speed 10 mph (SW)    
Max Wind Speed 17 mph    
Max Gust Speed 22 mph    
Visibility 9 miles    
Events      
Averages and records for this station are not official NWS values.
T = Trace of Precipitation, MM = Missing Value Source: NWS Daily Summary

Daily Weather History Graph

Daily Weather History Graph

Search for Another Location

Airport:

Trip Planner

Search our weather history database for the weather conditions in past years. The results will help you decide how hot, cold, wet, or windy it might be!

Date:

Astronomy

Nov. 14, 2012 Rise Set
Actual Time 7:20 AM MST 4:56 PM MST
Civil Twilight 6:49 AM MST 5:28 PM MST
Nautical Twilight 6:13 AM MST 6:03 PM MST
Astronomical Twilight 5:39 AM MST 6:38 PM MST
Moon 8:16 AM MST (11/14) 5:46 PM MST (11/14)
Length of Visible Light 10h 39m
Length of Day
9h 36m
New Moon, 1% of the Moon is Illuminated
Nov 14
New Moon
Nov 20
First Quarter
Nov 28
Full
Dec 6
Last Quarter
Dec 13
New

Hourly Weather History & Observations

Time (MST) Temp. Windchill Dew Point Humidity Pressure Visibility Wind Dir Wind Speed Gust Speed Precip Events Conditions
12:10 AM 28.4 °F 19.1 °F - N/A% 30.19 in 10.0 mi SW 10.4 mph 18.4 mph N/A   Overcast
12:30 AM 28.4 °F 20.4 °F - N/A% 30.19 in 10.0 mi WSW 8.1 mph - N/A   Overcast
12:50 AM 28.4 °F 19.7 °F - N/A% 30.18 in 10.0 mi WSW 9.2 mph 17.3 mph N/A   Overcast
1:10 AM 28.4 °F 19.1 °F - N/A% 30.18 in 10.0 mi WSW 10.4 mph - N/A   Overcast
1:30 AM 28.4 °F 19.1 °F - N/A% 30.18 in 10.0 mi SW 10.4 mph - N/A   Overcast
1:50 AM 28.4 °F 19.1 °F - N/A% 30.18 in 10.0 mi SW 10.4 mph - N/A   Overcast
2:10 AM 28.4 °F 19.7 °F - N/A% 30.18 in 10.0 mi SW 9.2 mph - N/A   Overcast
2:30 AM 28.4 °F 17.5 °F - N/A% 30.18 in 10.0 mi SW 13.8 mph 18.4 mph N/A   Overcast
2:50 AM 28.4 °F 19.7 °F - N/A% 30.18 in 10.0 mi SW 9.2 mph - N/A   Overcast
3:10 AM 26.6 °F 19.1 °F - N/A% 30.18 in 10.0 mi SW 6.9 mph - N/A   Overcast
3:30 AM 26.6 °F 17.5 °F - N/A% 30.17 in 10.0 mi SW 9.2 mph - N/A   Overcast
3:50 AM 26.6 °F 16.8 °F - N/A% 30.16 in 10.0 mi SSW 10.4 mph 16.1 mph N/A   Mostly Cloudy
4:10 AM 26.6 °F 15.7 °F - N/A% 30.16 in 10.0 mi SW 12.7 mph 16.1 mph N/A   Mostly Cloudy
4:30 AM 26.6 °F 16.2 °F - N/A% 30.16 in 10.0 mi SW 11.5 mph 16.1 mph N/A   Overcast
4:50 AM 28.4 °F 19.7 °F - N/A% 30.16 in 10.0 mi SW 9.2 mph - N/A   Overcast
5:10 AM 28.4 °F 19.7 °F - N/A% 30.16 in 10.0 mi SW 9.2 mph - N/A   Overcast
5:30 AM 28.4 °F 19.1 °F - N/A% 30.16 in 7.0 mi SW 10.4 mph - N/A   Overcast
5:50 AM 28.4 °F 19.1 °F - N/A% 30.16 in 10.0 mi SW 10.4 mph - N/A   Overcast
6:10 AM 28.4 °F 18.5 °F - N/A% 30.16 in 6.0 mi SW 11.5 mph 17.3 mph N/A   Overcast
6:30 AM 26.6 °F 16.8 °F - N/A% 30.16 in 4.0 mi SW 10.4 mph - N/A   Overcast
6:50 AM 28.4 °F 18.5 °F - N/A% 30.16 in 3.0 mi SW 11.5 mph 18.4 mph N/A   Overcast
7:10 AM 26.6 °F 15.7 °F - N/A% 30.16 in 2.0 mi SSW 12.7 mph 21.9 mph N/A   Overcast
7:30 AM 26.6 °F 15.7 °F - N/A% 30.16 in 2.5 mi SW 12.7 mph 17.3 mph N/A   Scattered Clouds
7:50 AM 26.6 °F 17.5 °F - N/A% 30.16 in 2.5 mi SW 9.2 mph - N/A   Mostly Cloudy
8:10 AM 26.6 °F 16.8 °F - N/A% 30.16 in 2.0 mi SW 10.4 mph - N/A   Overcast
8:30 AM 26.6 °F 17.5 °F - N/A% 30.16 in 6.0 mi SSW 9.2 mph - N/A   Haze
8:50 AM 28.4 °F - - N/A% 30.18 in 10.0 mi Calm Calm - N/A   Overcast
9:10 AM 28.4 °F - - N/A% 30.18 in 10.0 mi Calm Calm - N/A   Overcast
9:30 AM 28.4 °F 22.2 °F - N/A% 30.18 in 6.0 mi SSW 5.8 mph - N/A   Overcast
9:50 AM 28.4 °F 22.2 °F - N/A% 30.18 in 10.0 mi SW 5.8 mph - N/A   Overcast
10:10 AM 28.4 °F 17.0 °F - N/A% 30.18 in 10.0 mi SSW 15.0 mph 19.6 mph N/A   Mostly Cloudy
10:30 AM 28.4 °F 18.0 °F - N/A% 30.18 in 10.0 mi SW 12.7 mph 19.6 mph N/A   Mostly Cloudy
10:50 AM 30.2 °F 20.2 °F - N/A% 30.18 in 10.0 mi SW 12.7 mph 17.3 mph N/A   Mostly Cloudy
11:10 AM 30.2 °F 20.8 °F - N/A% 30.18 in 10.0 mi SW 11.5 mph 16.1 mph N/A   Mostly Cloudy
11:30 AM 32.0 °F 22.1 °F - N/A% 30.17 in 10.0 mi SW 13.8 mph 19.6 mph N/A   Overcast
11:50 AM 30.2 °F 21.9 °F - N/A% 30.17 in 10.0 mi SSW 9.2 mph 17.3 mph N/A   Overcast
12:10 PM 30.2 °F 19.3 °F - N/A% 30.17 in 10.0 mi SSW 15.0 mph 19.6 mph N/A   Overcast
12:30 PM 30.2 °F 19.3 °F - N/A% 30.17 in 10.0 mi SSW 15.0 mph 18.4 mph N/A   Overcast
12:50 PM 30.2 °F 20.2 °F - N/A% 30.17 in 10.0 mi SSW 12.7 mph 19.6 mph N/A   Overcast
1:10 PM 30.2 °F 19.8 °F - N/A% 30.16 in 8.0 mi SW 13.8 mph - N/A   Mostly Cloudy
1:30 PM 30.2 °F 18.9 °F - N/A% 30.15 in 5.0 mi SSW 16.1 mph 20.7 mph N/A   Scattered Clouds
1:50 PM 30.2 °F 19.8 °F - N/A% 30.15 in 8.0 mi SW 13.8 mph 21.9 mph N/A   Clear
2:10 PM 30.2 °F 20.2 °F - N/A% 30.15 in 10.0 mi SW 12.7 mph 18.4 mph N/A   Mostly Cloudy
2:30 PM 32.0 °F 20.8 °F - N/A% 30.15 in 10.0 mi SSW 17.3 mph 20.7 mph N/A   Overcast
2:50 PM 32.0 °F 23.0 °F - N/A% 30.17 in 10.0 mi SW 11.5 mph - N/A   Overcast
3:10 PM 30.2 °F 20.2 °F - N/A% 30.17 in 10.0 mi SW 12.7 mph 17.3 mph N/A   Overcast
3:30 PM 30.2 °F 20.8 °F - N/A% 30.18 in 10.0 mi SW 11.5 mph - N/A   Overcast
3:50 PM 30.2 °F 21.3 °F - N/A% 30.18 in 10.0 mi SW 10.4 mph - N/A   Mostly Cloudy
4:10 PM 28.4 °F 17.0 °F - N/A% 30.18 in 5.0 mi SW 15.0 mph 19.6 mph N/A   Mostly Cloudy
4:30 PM 28.4 °F 18.5 °F - N/A% 30.19 in 5.0 mi SW 11.5 mph 17.3 mph N/A   Mostly Cloudy
4:50 PM 28.4 °F 20.4 °F - N/A% 30.19 in 5.0 mi SSW 8.1 mph 16.1 mph N/A   Overcast
5:10 PM 28.4 °F 19.1 °F - N/A% 30.19 in 10.0 mi SSW 10.4 mph - N/A   Overcast
5:30 PM 28.4 °F 19.7 °F - N/A% 30.20 in 10.0 mi SW 9.2 mph - N/A   Overcast
5:50 PM 28.4 °F 19.1 °F - N/A% 30.21 in 10.0 mi SW 10.4 mph - N/A   Mostly Cloudy
6:10 PM 28.4 °F 19.7 °F - N/A% 30.22 in 10.0 mi SW 9.2 mph - N/A   Overcast
6:30 PM 26.6 °F 18.2 °F - N/A% 30.23 in 10.0 mi SW 8.1 mph - N/A   Overcast
6:50 PM 26.6 °F 17.5 °F - N/A% 30.23 in 10.0 mi SSW 9.2 mph - N/A   Mostly Cloudy
7:10 PM 26.6 °F 17.5 °F - N/A% 30.23 in 10.0 mi SSW 9.2 mph - N/A   Scattered Clouds
7:30 PM 24.8 °F 17.9 °F - N/A% 30.24 in 10.0 mi SW 5.8 mph - N/A   Clear
7:50 PM 24.8 °F 17.9 °F - N/A% 30.24 in 10.0 mi SSW 5.8 mph - N/A   Scattered Clouds
8:10 PM 24.8 °F 19.1 °F - N/A% 30.24 in 10.0 mi SSW 4.6 mph - N/A   Scattered Clouds
8:30 PM 24.8 °F 20.5 °F - N/A% 30.25 in 10.0 mi WSW 3.5 mph - N/A   Clear
8:50 PM 24.8 °F 20.5 °F - N/A% 30.25 in 10.0 mi SW 3.5 mph - N/A   Mostly Cloudy
9:10 PM 26.6 °F 21.2 °F - N/A% 30.26 in 10.0 mi SW 4.6 mph - N/A   Mostly Cloudy
9:30 PM 24.8 °F - - N/A% 30.26 in 10.0 mi Calm Calm - N/A   Mostly Cloudy
9:50 PM 24.8 °F 19.1 °F - N/A% 30.26 in 10.0 mi SW 4.6 mph - N/A   Mostly Cloudy
10:10 PM 23.0 °F - - N/A% 30.27 in 10.0 mi Calm Calm - N/A   Overcast
10:30 PM 23.0 °F 18.4 °F - N/A% 30.27 in 10.0 mi South 3.5 mph - N/A   Overcast
10:50 PM 23.0 °F 18.4 °F - N/A% 30.28 in 10.0 mi South 3.5 mph - N/A   Overcast
11:10 PM 23.0 °F 18.4 °F - N/A% 30.28 in 10.0 mi South 3.5 mph - N/A   Mostly Cloudy
11:30 PM 21.2 °F 14.9 °F - N/A% 30.28 in 10.0 mi South 4.6 mph - N/A   Mostly Cloudy
11:50 PM 23.0 °F 17.0 °F - N/A% 30.29 in 10.0 mi SW 4.6 mph - N/A   Mostly Cloudy